Date,TemperatureHighF,TemperatureAvgF,TemperatureLowF,DewpointHighF,DewpointAvgF,DewpointLowF,HumidityHigh,HumidityAvg,HumidityLow,PressureMaxIn,PressureMinIn,WindSpeedMaxMPH,WindSpeedAvgMPH,GustSpeedMaxMPH,PrecipitationSumIn
2013-1-1,50,47,44,50,45,34,100,91,65,30.14,29.97,5,1,9,1.16
2013-1-2,47,40,38,47,37,35,97,89,85,30.20,30.00,13,2,21,0.00
2013-1-3,44,37,31,34,32,27,90,80,55,30.40,30.17,9,2,16,0.00
2013-1-4,46,36,29,28,26,24,85,67,43,30.47,30.37,9,2,20,0.00
2013-1-5,49,38,28,37,28,24,88,68,43,30.43,30.28,6,1,9,0.01
2013-1-6,48,42,39,40,37,33,95,85,65,30.33,30.19,6,1,15,0.03
2013-1-7,54,40,32,35,31,27,90,73,43,30.43,30.31,6,1,13,0.00
2013-1-8,56,47,37,45,38,32,87,71,59,30.42,30.31,9,2,15,0.00
2013-1-9,55,53,51,54,50,45,97,91,80,30.43,30.33,5,1,8,0.12
2013-1-10,66,57,51,59,53,49,96,88,72,30.43,30.15,12,2,20,0.01
2013-1-11,65,63,61,63,62,58,98,95,84,30.16,30.08,16,4,25,0.20
2013-1-12,71,66,63,65,63,60,98,91,75,30.13,30.00,7,2,12,0.05
2013-1-13,69,64,61,63,61,58,97,89,77,30.05,29.94,8,3,20,1.44
2013-1-14,61,45,40,60,44,38,97,95,93,30.25,30.02,8,3,15,1.61
2013-1-15,44,42,40,43,41,39,98,97,96,30.17,30.00,6,1,12,1.03
2013-1-16,50,46,44,49,46,42,100,96,94,30.07,29.94,7,1,14,0.13
2013-1-17,44,40,35,43,38,31,96,91,74,30.36,29.71,16,6,35,0.58
2013-1-18,49,37,30,34,30,28,95,79,48,30.58,30.36,6,2,12,0.00
2013-1-19,54,39,29,34,31,27,97,76,41,30.48,30.25,8,2,15,0.01
2013-1-20,60,43,30,39,34,29,96,76,43,30.26,30.14,6,0,13,0.00
2013-1-21,50,38,29,36,26,18,96,66,34,30.26,30.12,9,1,20,0.01
2013-1-22,40,32,26,19,13,9,60,46,32,30.41,30.25,9,3,17,0.00
2013-1-23,52,38,29,34,21,11,83,52,39,30.42,30.20,8,1,15,0.00
2013-1-24,50,40,29,42,24,10,82,55,31,30.40,30.19,13,4,22,0.00
2013-1-25,37,34,31,36,24,11,99,70,38,30.40,30.17,12,4,25,0.05
2013-1-26,49,39,32,37,33,29,100,80,50,30.35,30.22,7,2,12,0.00
2013-1-27,52,42,31,36,33,29,92,71,54,30.46,30.33,10,3,20,0.00
2013-1-28,54,49,45,47,40,33,89,73,61,30.40,30.26,8,4,16,0.00
2013-1-29,68,58,49,62,54,46,96,86,75,30.27,29.89,8,2,14,0.01
2013-1-30,67,58,43,65,55,33,96,90,66,29.87,29.54,16,6,33,1.90
2013-1-31,48,40,34,35,26,23,79,58,39,30.14,29.81,16,5,28,0.00
2013-2-1,44,32,25,34,19,11,81,58,34,30.45,30.11,12,4,23,0.00
2013-2-2,38,30,21,35,24,16,96,81,54,30.42,30.15,7,1,14,0.05
2013-2-3,53,38,27,41,30,26,97,76,38,30.18,30.04,7,2,20,0.03
2013-2-4,48,38,27,34,28,24,90,71,48,30.18,30.03,6,1,10,0.00
2013-2-5,63,49,40,48,40,33,94,73,45,30.07,29.95,7,1,13,0.01
2013-2-6,64,47,32,45,36,32,98,72,34,30.21,30.06,7,1,10,0.01
2013-2-7,52,47,41,49,43,36,96,85,69,30.15,29.96,3,0,8,0.11
2013-2-8,55,47,38,49,42,32,96,84,57,30.26,29.94,13,3,20,0.06
2013-2-9,57,43,34,36,31,28,82,66,35,30.35,30.22,9,3,20,0.00
2013-2-10,56,50,46,50,39,29,96,68,36,30.28,30.03,16,5,27,0.91
2013-2-11,57,52,45,55,48,38,97,86,56,30.14,30.03,8,2,18,0.07
2013-2-12,51,45,41,42,37,32,96,74,50,30.16,29.85,9,1,16,0.18
2013-2-13,49,44,40,46,41,36,97,89,77,30.03,29.73,10,2,20,0.03
2013-2-14,57,45,37,39,35,32,87,70,47,30.12,30.02,8,1,12,0.00
2013-2-15,59,44,31,42,36,30,97,75,46,30.14,30.01,14,2,22,0.00
2013-2-16,42,35,26,31,22,14,78,61,39,30.21,30.04,12,3,27,0.00
2013-2-17,46,32,22,23,16,12,77,54,30,30.34,30.21,9,2,17,0.00
2013-2-18,59,45,29,32,25,19,78,49,33,30.36,30.05,13,4,27,0.00
2013-2-19,56,45,37,45,32,19,95,64,25,30.23,30.00,12,4,24,0.28
2013-2-20,42,36,26,23,18,12,84,50,30,30.27,30.19,12,2,20,0.00
2013-2-21,57,42,31,43,26,17,96,56,24,30.25,29.95,6,2,13,0.70
2013-2-22,47,46,44,44,43,41,96,90,83,30.13,30.03,12,5,22,0.46
2013-2-23,56,49,44,50,46,42,97,91,78,30.05,29.86,7,1,12,0.42
2013-2-24,58,45,36,44,34,30,94,69,36,30.09,29.94,7,2,14,0.00
2013-2-25,58,46,36,42,34,28,86,62,45,30.04,29.79,10,2,27,0.00
2013-2-26,51,45,42,45,41,36,95,86,66,29.78,29.51,14,7,28,0.69
2013-2-27,56,47,41,40,35,32,81,65,42,29.92,29.78,14,4,26,0.00
2013-2-28,44,40,37,33,29,27,73,66,58,30.06,29.88,7,2,17,0.00
2013-3-1,41,38,35,32,30,27,91,74,67,30.05,30.00,6,1,10,0.01
2013-3-2,39,35,33,32,29,25,92,79,65,30.11,29.99,7,2,15,0.01
2013-3-3,39,32,26,26,22,20,84,68,46,30.14,30.08,12,3,20,0.00
2013-3-4,54,40,24,33,25,21,91,60,32,30.24,30.02,7,1,12,0.00
2013-3-5,62,50,38,55,42,28,92,73,54,30.06,29.65,18,4,36,0.39
2013-3-6,41,36,33,31,27,22,88,69,60,30.27,29.93,13,5,26,0.01
2013-3-7,48,39,34,34,30,28,79,70,55,30.35,30.25,10,4,20,0.00
2013-3-8,56,42,31,30,27,20,83,59,24,30.39,30.28,10,3,18,0.00
2013-3-9,59,49,34,34,31,28,84,54,35,30.33,30.19,9,2,16,0.00
2013-3-10,70,61,54,43,35,32,51,40,25,30.18,29.99,15,7,29,0.00
2013-3-11,61,56,45,55,50,42,95,81,52,30.02,29.75,13,5,26,0.88
2013-3-12,58,46,39,42,34,31,91,67,37,30.13,29.91,10,3,22,0.00
2013-3-13,50,41,32,34,28,21,91,62,37,30.35,30.13,12,3,24,0.00
2013-3-14,53,39,29,37,22,16,87,53,25,30.44,30.27,9,3,20,0.01
2013-3-15,74,53,32,46,39,31,96,65,35,30.30,29.96,13,3,28,0.00
2013-3-16,76,67,55,49,46,43,65,48,34,29.96,29.83,14,5,26,0.00
2013-3-17,70,63,55,54,50,46,79,62,52,29.97,29.87,9,3,20,0.00
2013-3-18,61,55,52,57,52,49,96,90,78,29.92,29.78,12,3,25,0.69
2013-3-19,62,52,37,52,34,18,95,56,25,30.14,29.90,12,4,23,0.00
2013-3-20,57,47,36,32,24,16,72,43,22,30.17,29.93,14,3,30,0.00
2013-3-21,46,36,28,30,18,10,76,50,29,30.07,29.96,12,3,20,0.00
2013-3-22,47,40,32,37,24,17,81,53,40,30.10,30.01,5,1,10,0.00
2013-3-23,53,46,40,48,42,36,95,88,77,30.04,29.76,5,1,8,0.29
2013-3-24,57,51,43,53,47,32,97,86,62,29.85,29.45,14,5,40,1.83
2013-3-25,43,37,34,31,26,24,76,63,58,30.11,29.70,16,7,29,0.00
2013-3-26,41,36,32,30,28,25,88,73,59,30.34,30.10,8,2,15,0.00
2013-3-27,53,41,32,30,27,25,79,59,36,30.40,30.28,12,3,18,0.00
2013-3-28,60,45,29,34,30,26,90,59,34,30.40,30.26,9,2,21,0.00
2013-3-29,57,46,34,41,36,32,93,69,40,30.36,30.22,5,1,12,0.00
2013-3-30,70,54,43,55,46,41,96,79,44,30.24,30.01,17,1,32,0.34
2013-3-31,64,59,55,59,56,54,99,91,73,30.01,29.86,9,2,16,0.94
2013-4-1,69,58,44,57,46,38,98,70,37,30.07,29.89,13,2,18,0.01
2013-4-2,58,50,42,39,30,24,70,47,30,30.23,30.07,7,3,15,0.00
2013-4-3,57,50,44,42,29,23,88,45,33,30.24,30.14,7,3,13,0.01
2013-4-4,46,44,43,44,43,41,96,95,90,30.18,29.99,5,0,10,0.72
2013-4-5,65,52,43,45,41,37,97,72,37,30.10,30.00,9,3,22,0.01
2013-4-6,72,56,37,44,40,36,95,60,30,30.20,30.06,10,2,18,0.00
2013-4-7,75,62,48,50,46,40,80,58,37,30.18,30.03,13,3,27,0.00
2013-4-8,77,64,54,57,52,49,87,67,44,30.11,30.01,8,2,18,0.00
2013-4-9,81,68,53,60,56,51,94,66,43,30.18,30.02,9,2,20,0.00
2013-4-10,84,71,57,62,58,54,91,66,44,30.10,29.87,10,2,19,0.00
2013-4-11,78,69,61,67,60,57,96,75,58,29.89,29.60,13,4,35,1.52
2013-4-12,66,59,52,62,48,37,95,69,35,29.96,29.61,9,3,21,0.01
2013-4-13,74,58,43,46,42,37,92,58,27,30.08,29.96,10,1,18,0.00
2013-4-14,63,54,44,54,48,42,95,81,50,30.04,29.92,9,1,21,0.04
2013-4-15,76,65,56,60,57,54,93,76,55,30.10,29.93,8,2,17,0.00
2013-4-16,80,70,63,65,62,58,88,76,60,30.22,30.10,10,3,18,0.00
2013-4-17,84,72,66,71,64,61,90,78,56,30.19,30.03,10,2,20,0.02
2013-4-18,82,71,62,63,60,57,93,70,46,30.05,29.81,12,4,25,0.00
2013-4-19,73,58,44,65,52,38,95,79,60,30.09,29.68,13,5,28,1.18
2013-4-20,62,49,33,40,35,31,96,62,32,30.28,30.09,9,2,20,0.00
2013-4-21,70,56,42,43,38,34,82,53,30,30.37,30.22,7,1,13,0.00
2013-4-22,71,59,49,49,44,41,83,58,34,30.32,30.13,7,1,12,0.00
2013-4-23,74,62,51,52,45,36,70,54,42,30.23,30.03,8,3,16,0.00
2013-4-24,71,60,48,62,54,45,92,82,66,30.21,30.02,9,2,23,0.18
2013-4-25,67,53,43,44,39,33,87,62,32,30.35,30.21,7,2,21,0.00
2013-4-26,74,59,42,52,40,34,93,53,26,30.38,30.23,7,2,16,0.31
2013-4-27,66,57,53,57,54,52,97,89,65,30.38,30.08,9,2,17,0.72
2013-4-28,59,58,56,58,56,54,97,95,87,30.12,29.95,12,3,20,1.95
2013-4-29,73,62,55,61,57,54,97,84,59,30.04,29.93,6,1,12,0.00
2013-4-30,79,63,48,62,55,48,98,79,44,30.08,29.95,7,1,15,0.00
2013-5-1,74,67,60,59,58,54,93,73,57,30.16,30.07,7,2,13,0.00
2013-5-2,73,65,54,60,56,52,95,74,60,30.17,30.09,9,3,23,0.00
2013-5-3,66,63,61,57,55,54,83,76,67,30.10,29.94,12,4,26,0.00
2013-5-4,63,55,52,54,52,49,97,88,67,29.95,29.87,15,3,25,2.09
2013-5-5,64,52,48,54,49,46,97,91,60,29.88,29.75,9,2,24,1.52
2013-5-6,55,50,47,51,49,46,100,94,86,29.92,29.79,7,1,14,0.30
2013-5-7,71,59,50,56,52,49,97,79,49,29.99,29.88,7,1,18,0.06
2013-5-8,76,64,51,62,57,50,97,78,55,30.06,29.96,8,2,15,0.10
2013-5-9,82,68,55,65,59,54,98,75,39,30.11,30.00,7,1,13,0.00
2013-5-10,75,67,58,61,59,57,96,77,59,30.07,29.93,7,2,14,0.00
2013-5-11,75,66,58,65,61,56,96,86,64,29.99,29.88,9,2,14,0.31
2013-5-12,68,58,50,55,43,33,96,61,29,30.15,29.98,6,2,18,0.00
2013-5-13,69,57,50,43,38,35,61,50,29,30.26,30.13,7,1,16,0.00
2013-5-14,80,66,42,58,49,41,97,56,45,30.25,30.06,8,2,17,0.00
2013-5-15,84,74,65,58,58,53,79,59,34,30.16,29.98,5,0,11,0.00
2013-5-16,83,71,60,65,60,57,94,71,45,30.08,29.95,7,1,13,0.00
2013-5-17,80,70,61,66,61,58,94,76,53,30.08,29.99,8,1,15,0.10
2013-5-18,74,68,65,69,66,63,96,93,86,30.06,29.99,8,2,15,0.52
2013-5-19,70,66,60,69,65,60,98,96,91,30.10,29.96,10,2,20,2.12
2013-5-20,82,69,57,70,64,56,99,86,60,30.11,29.98,8,1,14,0.00
2013-5-21,87,75,64,72,68,63,98,81,53,30.03,29.85,8,1,14,0.00
2013-5-22,85,75,66,70,67,64,95,78,51,29.94,29.83,9,2,20,0.00
2013-5-23,82,72,63,66,62,56,96,72,44,30.00,29.88,10,2,20,0.00
2013-5-24,72,64,53,57,52,44,86,65,41,30.25,30.00,7,2,23,0.00
2013-5-25,79,62,48,54,47,40,94,63,26,30.33,30.18,5,1,12,0.00
2013-5-26,82,65,49,60,54,48,96,70,40,30.26,30.15,3,0,10,0.00
2013-5-27,84,69,53,64,58,52,96,71,41,30.21,30.08,8,1,17,0.00
2013-5-28,84,73,63,65,62,59,95,70,43,30.17,30.07,10,2,15,0.00
2013-5-29,84,74,61,68,63,58,90,71,41,30.19,30.09,8,2,16,0.00
2013-5-30,82,74,67,68,65,63,88,74,58,30.21,30.07,9,2,20,0.00
2013-5-31,85,75,64,68,66,63,96,75,51,30.16,30.02,8,2,18,0.00
2013-6-1,84,74,67,74,69,64,96,83,65,30.06,29.94,8,2,22,0.47
2013-6-2,82,74,69,74,70,67,97,87,63,29.97,29.85,8,1,17,0.08
2013-6-3,84,73,66,70,66,63,98,82,55,29.97,29.86,7,0,12,0.00
2013-6-4,86,72,60,67,63,58,96,74,45,30.01,29.94,6,0,12,0.00
2013-6-5,82,70,64,72,67,62,97,89,68,30.00,29.89,10,1,24,0.64
2013-6-6,82,73,67,71,68,66,96,85,64,29.92,29.72,7,2,13,0.00
2013-6-7,83,72,65,71,68,64,97,88,61,29.85,29.68,6,1,12,0.26
2013-6-8,81,71,65,71,67,64,98,86,62,30.05,29.85,6,0,9,0.01
2013-6-9,82,72,66,72,69,64,98,92,72,30.07,29.95,8,1,17,0.54
2013-6-10,83,74,70,70,68,67,96,83,60,29.99,29.87,8,2,15,0.10
2013-6-11,89,79,71,76,71,68,96,80,54,30.02,29.93,6,1,15,0.06
2013-6-12,91,79,69,78,73,68,98,84,59,30.05,29.93,6,0,12,0.00
2013-6-13,89,79,71,76,72,67,95,81,62,29.94,29.71,13,3,23,0.53
2013-6-14,83,74,63,67,63,60,90,70,48,29.99,29.85,5,1,15,0.00
2013-6-15,85,73,60,66,63,59,96,72,46,30.11,29.99,7,1,13,0.00
2013-6-16,88,74,64,74,67,63,96,80,53,30.12,29.97,6,1,13,0.35
2013-6-17,82,73,68,74,70,67,97,90,76,30.04,29.90,6,1,10,0.02
2013-6-18,81,73,67,75,70,66,96,92,79,29.92,29.83,7,1,20,0.32
2013-6-19,86,73,63,70,66,62,98,80,52,30.05,29.91,3,0,10,0.00
2013-6-20,84,75,66,71,67,64,98,78,57,30.17,30.06,7,1,13,0.00
2013-6-21,86,74,66,73,67,64,96,82,53,30.23,30.12,6,0,8,0.00
2013-6-22,88,75,64,69,66,63,98,76,48,30.21,30.06,7,1,12,0.00
2013-6-23,85,75,66,71,68,64,95,80,60,30.18,30.06,7,1,13,0.00
2013-6-24,86,76,68,73,70,67,97,83,62,30.21,30.06,7,1,14,0.00
2013-6-25,87,77,69,75,71,68,95,84,63,30.14,29.99,6,1,13,0.01
2013-6-26,88,79,71,78,73,70,97,83,66,30.05,29.88,8,2,13,0.01
2013-6-27,87,79,73,78,73,70,96,83,69,29.94,29.77,8,2,16,0.52
2013-6-28,91,78,67,77,71,65,98,82,54,29.83,29.64,9,1,23,0.07
2013-6-29,87,75,66,71,65,58,98,75,40,29.71,29.64,5,1,13,0.04
2013-6-30,89,75,64,70,65,59,97,73,39,29.78,29.67,5,0,12,0.00
2013-7-1,82,73,66,72,68,64,95,83,60,29.90,29.75,7,1,13,0.03
2013-7-2,84,74,67,72,68,66,98,85,59,30.05,29.89,8,2,20,1.19
2013-7-3,74,71,68,72,69,67,98,96,92,30.14,30.03,5,1,12,0.47
2013-7-4,75,70,67,73,69,66,98,96,91,30.14,30.05,6,1,21,1.46
2013-7-5,74,71,69,73,70,68,97,96,93,30.17,30.08,7,1,12,0.38
2013-7-6,75,70,69,73,70,68,98,97,93,30.13,30.09,7,1,16,2.23
2013-7-7,81,73,69,74,71,68,99,94,77,30.15,30.08,8,2,15,1.04
2013-7-8,87,76,71,78,73,70,99,90,68,30.18,30.07,2,0,8,0.01
2013-7-9,88,78,72,79,74,72,98,89,62,30.15,30.03,7,0,12,0.10
2013-7-10,87,77,69,79,74,68,98,91,71,30.07,29.91,6,1,21,0.91
2013-7-11,86,75,69,78,71,68,98,90,67,29.98,29.85,5,0,12,0.38
2013-7-12,88,76,69,75,71,65,97,84,56,29.94,29.87,3,0,12,0.01
2013-7-13,83,74,64,72,68,63,97,83,68,30.05,29.93,5,1,12,0.00
2013-7-14,85,76,70,75,72,68,98,88,71,30.18,30.03,3,0,12,0.31
2013-7-15,90,77,69,76,72,68,98,86,56,30.27,30.18,3,0,9,0.09
2013-7-16,92,79,69,78,73,68,98,83,56,30.30,30.21,3,0,8,0.00
2013-7-17,95,80,70,81,75,69,98,86,54,30.27,30.11,3,0,8,0.03
2013-7-18,92,79,70,78,72,69,97,81,54,30.20,30.03,5,0,10,0.02
2013-7-19,93,81,72,78,74,71,98,81,52,30.09,29.94,5,0,8,0.00
2013-7-20,89,78,73,78,73,71,97,87,60,30.01,29.90,2,0,12,0.41
2013-7-21,86,76,72,77,73,71,97,91,69,30.01,29.92,3,0,8,0.24
2013-7-22,86,77,69,76,72,68,98,86,63,29.98,29.83,5,1,12,0.00
2013-7-23,81,75,71,75,72,69,95,88,78,29.94,29.81,5,0,12,0.34
2013-7-24,86,75,69,75,72,68,98,89,67,29.89,29.80,2,0,7,0.01
2013-7-25,88,76,66,74,69,64,96,80,55,30.00,29.86,2,0,7,0.00
2013-7-26,88,74,63,74,68,62,97,82,59,30.05,29.95,3,0,9,0.00
2013-7-27,85,75,69,73,70,68,97,86,66,29.98,29.86,7,1,12,0.00
2013-7-28,84,75,67,73,69,65,97,82,61,30.05,29.90,2,0,6,0.00
2013-7-29,80,69,61,66,62,58,93,79,55,30.18,30.04,2,0,6,0.00
2013-7-30,88,72,60,73,65,59,98,80,47,30.23,30.09,0,0,1,0.00
2013-7-31,78,72,68,73,70,67,98,94,82,30.13,29.95,6,1,13,1.19
2013-8-1,85,76,71,75,71,69,98,87,62,29.98,29.91,2,0,10,0.00
2013-8-2,88,75,66,72,68,65,96,81,53,30.02,29.94,2,0,6,0.00
2013-8-3,84,74,65,74,70,64,98,86,67,30.05,29.98,3,0,12,0.00
2013-8-4,86,77,69,75,71,66,97,84,64,30.05,29.97,3,0,12,0.00
2013-8-5,87,75,66,71,66,62,92,75,46,30.05,29.96,3,0,7,0.00
2013-8-6,85,76,70,77,71,68,97,84,66,30.00,29.93,5,0,12,0.74
2013-8-7,82,73,70,77,72,68,98,94,76,30.02,29.94,6,1,16,0.24
2013-8-8,87,76,71,77,73,71,98,90,71,30.04,29.95,6,1,16,0.17
2013-8-9,89,79,71,78,74,70,99,87,66,30.05,29.97,5,1,10,0.01
2013-8-10,85,76,73,78,74,70,98,93,75,30.11,30.04,3,0,22,0.53
2013-8-11,86,76,71,77,73,70,99,92,71,30.14,30.05,7,1,12,0.01
2013-8-12,87,77,70,78,74,69,98,91,70,30.10,29.95,3,0,16,0.42
2013-8-13,86,77,72,76,72,70,98,87,65,30.01,29.86,7,1,12,0.08
2013-8-14,79,72,65,70,67,62,92,84,62,30.02,29.91,3,1,12,0.00
2013-8-15,78,70,63,66,62,60,93,78,61,30.07,30.00,7,1,13,0.00
2013-8-16,70,67,65,66,63,61,95,87,80,30.10,30.02,2,0,7,0.08
2013-8-17,71,67,64,65,64,63,97,91,78,30.13,30.07,3,0,9,0.12
2013-8-18,75,70,65,71,68,64,98,93,82,30.18,30.09,3,0,9,0.31
2013-8-19,83,73,68,75,70,67,98,93,71,30.14,30.02,2,0,9,0.55
2013-8-20,84,75,68,74,71,67,98,89,70,30.16,30.07,5,1,10,0.00
2013-8-21,84,75,70,76,72,70,98,92,73,30.20,30.07,3,0,12,0.56
2013-8-22,84,74,70,78,72,69,99,94,77,30.16,30.03,3,0,10,0.70
2013-8-23,88,75,68,76,71,67,99,88,62,30.09,29.97,2,0,6,0.00
2013-8-24,85,76,67,74,70,66,98,83,64,30.22,30.04,5,1,12,0.00
2013-8-25,84,74,64,69,66,62,95,76,54,30.34,30.22,6,0,12,0.00
2013-8-26,83,71,62,69,65,61,98,82,57,30.31,30.14,2,0,8,0.00
2013-8-27,86,73,62,73,67,61,98,84,58,30.16,30.02,2,0,9,0.00
2013-8-28,87,76,66,75,71,65,98,85,63,30.06,29.97,2,0,7,0.00
2013-8-29,90,80,70,79,74,69,97,82,63,30.02,29.91,3,0,10,0.00
2013-8-30,87,77,72,77,73,70,98,89,69,29.99,29.91,7,1,15,0.00
2013-8-31,91,80,72,79,74,71,97,85,57,29.96,29.82,5,1,10,0.00
2013-9-1,84,74,71,77,72,68,98,93,76,29.93,29.83,7,1,13,1.07
2013-9-2,84,75,72,76,72,71,98,91,70,29.97,29.84,6,1,12,0.10
2013-9-3,87,77,69,76,72,68,97,86,65,29.98,29.85,2,0,7,0.00
2013-9-4,87,74,64,71,67,63,97,82,51,30.09,29.97,3,0,7,0.00
2013-9-5,84,72,63,71,67,62,98,85,61,30.14,30.07,2,0,10,0.00
2013-9-6,87,73,62,71,66,61,97,83,54,30.16,30.04,5,0,8,0.00
2013-9-7,86,73,64,74,67,63,98,83,55,30.12,29.99,6,1,9,0.01
2013-9-8,87,75,64,76,70,63,98,85,62,30.01,29.93,3,0,7,0.00
2013-9-9,89,77,70,76,71,69,98,85,54,30.09,29.98,6,0,12,0.00
2013-9-10,89,77,68,74,70,67,97,82,54,30.20,30.09,6,1,12,0.00
2013-9-11,90,76,66,74,69,66,98,81,50,30.22,30.08,3,0,6,0.00
2013-9-12,88,76,67,75,70,66,98,82,54,30.09,29.90,6,0,13,0.00
2013-9-13,81,73,64,70,64,54,95,74,45,29.94,29.85,5,1,10,0.00
2013-9-14,79,65,53,62,56,50,94,75,49,30.07,29.93,2,0,7,0.00
2013-9-15,82,68,57,68,62,56,98,83,52,30.15,30.06,8,1,14,0.00
2013-9-16,84,71,60,71,63,59,98,81,44,30.16,30.07,3,0,10,0.00
2013-9-17,80,72,64,66,63,60,93,75,58,30.20,30.11,8,2,15,0.00
2013-9-18,76,69,65,63,60,58,82,72,62,30.22,30.15,7,2,14,0.00
2013-9-19,83,75,65,69,66,62,95,73,57,30.19,30.05,6,1,10,0.00
2013-9-20,85,73,63,69,65,62,98,80,50,30.07,29.86,7,1,14,0.00
2013-9-21,74,68,64,69,66,59,97,92,82,29.89,29.74,5,1,12,2.84
2013-9-22,76,64,56,61,58,54,96,81,52,29.90,29.79,3,1,12,0.00
2013-9-23,80,65,53,64,59,52,98,82,52,30.01,29.89,5,1,10,0.00
2013-9-24,69,66,60,66,63,58,95,90,82,30.02,29.88,5,1,9,0.03
2013-9-25,69,66,65,66,64,63,98,95,90,29.89,29.82,3,0,8,0.53
2013-9-26,72,65,62,65,62,61,97,93,78,30.01,29.88,3,0,7,0.00
2013-9-27,80,66,57,64,60,56,98,83,50,30.14,30.01,3,0,6,0.01
2013-9-28,77,67,59,65,60,56,97,80,58,30.21,30.09,6,1,10,0.00
2013-9-29,74,65,56,62,58,54,95,79,54,30.15,30.02,6,1,10,0.00
2013-9-30,76,64,54,64,58,54,98,83,53,30.09,29.99,7,1,13,0.00
2013-10-1,82,66,58,68,62,57,98,87,57,30.16,30.05,3,0,8,0.00
2013-10-2,83,69,59,72,64,58,98,86,58,30.17,30.05,2,0,6,0.00
2013-10-3,83,72,63,67,65,62,98,82,53,30.13,30.03,6,1,12,0.00
2013-10-4,84,69,60,71,64,60,98,86,58,30.16,30.07,6,0,7,0.00
2013-10-5,85,72,62,69,65,61,98,82,52,30.12,29.99,6,1,15,0.00
2013-10-6,80,70,63,71,66,62,98,90,67,30.01,29.80,7,1,14,0.12
2013-10-7,69,61,55,65,54,50,97,81,52,30.03,29.84,6,1,14,0.65
2013-10-8,76,62,53,61,55,48,94,78,59,30.13,30.02,5,1,14,0.00
2013-10-9,77,64,57,64,58,53,96,82,58,30.20,30.09,2,0,6,0.00
2013-10-10,78,64,55,64,59,54,98,85,54,30.15,30.02,3,0,12,0.00
2013-10-11,78,63,51,61,56,50,98,82,48,30.09,29.99,2,0,8,0.00
2013-10-12,80,64,51,63,57,51,98,82,48,30.11,30.01,3,0,9,0.01
2013-10-13,80,65,52,64,59,52,98,83,52,30.21,30.10,3,0,12,0.00
2013-10-14,79,67,56,66,61,55,98,84,57,30.22,30.08,6,0,10,0.00
2013-10-15,68,66,62,62,60,58,92,84,74,30.16,30.05,6,1,12,0.00
2013-10-16,70,64,58,65,60,56,96,88,75,30.06,29.95,5,0,9,0.00
2013-10-17,70,65,58,67,62,53,97,90,77,30.00,29.87,5,1,10,0.09
2013-10-18,68,57,50,56,51,48,95,81,53,30.06,29.96,5,1,9,0.00
2013-10-19,68,56,50,59,52,48,97,87,60,30.04,29.92,7,0,10,0.00
2013-10-20,66,51,42,49,44,40,95,79,41,30.11,30.02,3,0,12,0.00
2013-10-21,71,53,36,55,45,36,99,78,43,30.15,30.02,6,0,9,0.00
2013-10-22,70,59,51,55,52,50,96,79,50,30.04,29.86,5,0,10,0.00
2013-10-23,56,50,38,51,42,36,96,77,50,30.11,29.85,6,1,18,0.00
2013-10-24,60,47,36,47,40,34,96,78,52,30.28,30.10,6,0,12,0.00
2013-10-25,52,42,33,38,31,27,90,66,41,30.46,30.28,6,1,15,0.00
2013-10-26,59,42,27,40,33,26,96,74,37,30.38,30.18,6,1,12,0.00
2013-10-27,59,52,42,52,46,38,92,81,71,30.18,30.12,3,0,8,0.00
2013-10-28,61,56,51,59,54,50,98,95,89,30.28,30.13,3,0,7,0.05
2013-10-29,73,59,50,62,55,49,98,88,62,30.34,30.22,5,0,12,0.00
2013-10-30,77,64,56,62,58,55,98,83,51,30.29,30.13,6,0,12,0.01
2013-10-31,73,66,59,65,61,56,96,85,73,30.15,29.76,9,3,18,0.08
2013-11-1,74,65,51,65,56,45,96,77,37,29.83,29.70,7,2,17,0.29
2013-11-2,66,54,44,51,44,37,98,72,36,30.11,29.82,7,1,16,0.00
2013-11-3,60,49,40,44,41,38,95,77,47,30.32,30.10,6,1,12,0.00
2013-11-4,64,51,37,42,39,36,97,68,44,30.43,30.32,10,2,21,0.00
2013-11-5,67,55,43,46,40,36,82,58,41,30.46,30.31,5,1,12,0.00
2013-11-6,71,62,54,59,54,38,93,76,53,30.32,30.08,9,2,18,0.01
2013-11-7,64,54,45,60,46,32,97,74,48,30.27,30.02,8,3,17,0.33
2013-11-8,57,45,35,34,30,25,86,60,30,30.40,30.27,7,1,13,0.00
2013-11-9,55,44,31,40,35,30,96,73,46,30.37,30.25,7,1,13,0.00
2013-11-10,68,54,42,46,41,33,94,65,36,30.33,30.23,6,1,12,0.00
2013-11-11,67,50,36,41,35,30,82,57,30,30.34,30.17,6,1,12,0.00
2013-11-12,56,43,32,43,31,16,91,65,42,30.55,30.16,10,4,23,0.00
2013-11-13,46,34,27,23,19,16,77,55,30,30.67,30.51,7,2,14,0.00
2013-11-14,57,37,22,27,23,19,94,62,23,30.54,30.32,6,1,12,0.00
2013-11-15,54,45,36,45,36,23,96,73,42,30.33,30.15,5,0,8,0.09
2013-11-16,63,54,45,58,51,44,98,92,83,30.23,30.11,8,2,16,0.00
2013-11-17,68,62,60,67,60,56,98,93,85,30.12,29.88,8,4,20,0.16
2013-11-18,69,60,50,68,44,34,97,58,34,30.13,29.89,9,3,16,0.01
2013-11-19,55,48,41,34,30,27,67,50,34,30.22,30.11,10,4,21,0.00
2013-11-20,59,47,32,36,33,29,90,59,38,30.33,30.18,9,2,16,0.00
2013-11-21,61,55,51,52,45,35,87,70,53,30.37,30.28,9,4,16,0.00
2013-11-22,62,57,54,58,55,51,97,92,85,30.33,30.19,7,2,12,0.08
2013-11-23,56,48,37,54,41,23,93,76,54,30.37,30.18,10,4,20,0.00
2013-11-24,39,32,26,23,15,9,67,51,32,30.57,30.36,12,5,23,0.00
2013-11-25,44,36,25,35,20,10,94,57,27,30.50,30.23,7,2,17,0.33
2013-11-26,44,39,34,43,38,33,100,96,90,30.23,29.77,6,2,16,2.65
2013-11-27,39,33,26,37,26,18,90,73,60,30.33,29.81,10,5,22,0.01
2013-11-28,47,32,24,27,21,17,90,68,35,30.52,30.33,6,1,12,0.00
2013-11-29,52,36,22,31,26,21,95,72,34,30.60,30.49,6,1,10,0.00
2013-11-30,54,43,29,31,29,26,93,60,38,30.57,30.34,8,2,13,0.00
2013-12-1,55,43,28,41,34,26,93,71,50,30.34,30.04,5,0,9,0.00
2013-12-2,50,47,44,49,45,39,98,93,75,30.04,29.83,3,0,8,0.18
2013-12-3,55,53,50,54,52,49,98,97,93,29.90,29.83,6,1,10,0.01
2013-12-4,71,61,55,64,59,53,97,92,77,30.00,29.89,6,2,13,0.00
2013-12-5,72,66,62,68,65,61,97,95,88,30.04,29.92,6,2,12,0.07
2013-12-6,76,62,41,68,60,39,98,92,75,30.15,29.89,9,3,30,0.89
2013-12-7,41,39,38,40,36,35,97,90,85,30.38,30.16,10,5,20,0.00
2013-12-8,48,43,37,46,42,36,98,96,93,30.34,30.12,8,3,18,0.60
2013-12-9,52,47,44,50,46,42,97,95,89,30.19,30.04,6,1,10,0.24
2013-12-10,44,39,28,42,34,26,96,85,60,30.40,30.01,8,2,17,0.49
2013-12-11,52,36,25,34,29,24,97,77,40,30.50,30.38,3,0,9,0.01
2013-12-12,41,33,26,28,23,17,86,68,38,30.56,30.44,8,2,17,0.00
2013-12-13,48,36,22,34,25,20,93,68,37,30.47,30.18,5,0,8,0.00
2013-12-14,52,49,45,51,43,27,98,84,47,30.21,29.83,7,2,20,0.82
2013-12-15,48,38,32,45,33,29,91,83,77,30.26,29.89,9,3,16,0.00
2013-12-16,54,37,26,38,32,24,97,82,52,30.31,30.19,6,1,12,0.00
2013-12-17,63,46,32,40,35,30,94,69,38,30.27,30.07,9,2,21,0.00
2013-12-18,51,39,30,31,26,22,83,61,32,30.39,30.26,5,1,15,0.00
2013-12-19,60,46,30,32,27,22,87,50,30,30.35,30.19,7,1,17,0.00
2013-12-20,62,53,42,52,41,30,81,63,51,30.21,30.09,7,2,13,0.00
2013-12-21,68,62,57,66,59,52,97,90,81,30.09,29.84,8,4,20,0.28
2013-12-22,68,59,55,66,58,54,97,95,85,30.08,29.81,15,3,22,1.83
2013-12-23,55,45,34,54,41,28,98,86,75,30.36,30.05,10,3,18,0.15
2013-12-24,37,32,27,28,23,18,85,72,49,30.51,30.36,9,3,20,0.00
2013-12-25,46,32,20,28,22,18,92,68,44,30.51,30.37,9,1,13,0.00
2013-12-26,50,36,26,32,28,24,94,74,46,30.43,30.33,5,1,8,0.00
2013-12-27,54,37,26,33,28,24,95,75,39,30.52,30.38,3,0,6,0.00
2013-12-28,40,35,29,38,33,27,97,92,76,30.44,30.00,6,0,13,1.19
2013-12-29,49,42,37,45,40,36,99,93,83,30.10,29.92,6,1,12,0.43
2013-12-30,44,40,37,42,37,33,98,88,80,30.27,30.08,7,1,12,0.00
2013-12-31,41,35,30,34,30,27,94,82,61,30.48,30.25,7,1,14,0.00
2014-1-1,50,38,27,36,31,26,96,79,56,30.40,30.13,7,1,15,0.01
2014-1-2,48,39,23,46,35,15,97,84,69,30.24,29.81,12,3,23,0.28